Simultaneous Nadir Overpasses (SNOs) Predictions

Prediction of SNOs between LANDSAT-8 and METOP-B Satellite Orbit:

Table of predicted SNOs for the next 14.0 days since TLE Epoch: 12/2/2017
Index Date (LANDSAT-8) Time (LANDSAT-8) Lat,Lon (LANDSAT-8) SZA (LANDSAT-8 ) Date (METOP-B) Time (METOP-B) Lat,Lon (METOP-B) SZA (METOP-B ) Distance(km) Time Diff (sec)
1 12/04/2017 22:09:10 -81.12, 67.51 74.38 12/04/2017 22:08:35 -81.12, 67.39 74.41 2.05 35
2 12/04/2017 22:58:35 81.15,-124.41 105.69 12/04/2017 22:59:14 81.14,-124.57 105.69 2.93 39
3 12/07/2017 17:43:25 -81.13, 134.02 74.07 12/07/2017 17:42:57 -81.13, 134.19 74.06 3.07 28
4 12/07/2017 18:32:50 81.15, -57.92 106.00 12/07/2017 18:33:36 81.15, -57.81 106.03 1.97 46
5 12/10/2017 13:17:39 -81.13,-159.52 73.83 12/10/2017 13:17:19 -81.13,-159.40 73.82 2.05 20
6 12/10/2017 14:07:04 81.15, 8.51 106.24 12/10/2017 14:07:58 81.15, 8.55 106.26 0.64 54
7 12/13/2017 08:51:54 -81.13, -93.10 73.65 12/13/2017 08:51:42 -81.13, -93.02 73.65 1.51 12
8 12/13/2017 09:41:19 81.15, 74.91 106.41 12/13/2017 09:42:21 81.15, 74.89 106.43 0.30 62




NCC Satellite Simultaneous Nadir Overpasses (SNOs) Prediction Service
